QAK495 MMSD-MMCL

Flight info

Callsign QAK495
Flight time 0h 31m
Altitude 25000
Route UKUXA1B UKUXA UJ54 OLAKA OLAKA1A
Aircraft A320/M-SDE3FGHIRWY/LB1

Departure

Time 2026-04-28 08:10
Airport Los Cabos International Airport (MMSD)

Arrival

Time 2026-04-28 08:42
Airport Bachigualato Federal International Airport (MMCL)
Time Latitude Longitude Altitude Speed Heading
2026-04-28 07:58 23.16243 -109.71842 387 ft 0 kts 84°
2026-04-28 08:02 23.16242 -109.71848 387 ft 3 kts 83°
2026-04-28 08:03 23.16240 -109.71869 387 ft 3 kts 81°
2026-04-28 08:03 23.16237 -109.71888 387 ft 2 kts 69°
2026-04-28 08:03 23.16234 -109.71897 387 ft 1 kts 31°
2026-04-28 08:03 23.16226 -109.71901 387 ft 1 kts 355°
2026-04-28 08:04 23.16218 -109.71900 387 ft 1 kts 352°
2026-04-28 08:04 23.16217 -109.71900 387 ft 0 kts 352°
2026-04-28 08:05 23.16223 -109.71901 387 ft 4 kts 352°
2026-04-28 08:05 23.16281 -109.71913 387 ft 9 kts 334°
2026-04-28 08:06 23.16290 -109.71974 387 ft 9 kts 286°
2026-04-28 08:06 23.16370 -109.72004 387 ft 17 kts 353°
2026-04-28 08:06 23.16501 -109.72021 387 ft 21 kts 353°
2026-04-28 08:06 23.16557 -109.72052 387 ft 7 kts 263°
2026-04-28 08:07 23.16550 -109.72119 387 ft 11 kts 269°
2026-04-28 08:07 23.16549 -109.72132 387 ft 0 kts 267°
2026-04-28 08:08 23.16549 -109.72134 387 ft 2 kts 267°
2026-04-28 08:08 23.16547 -109.72182 388 ft 8 kts 267°
2026-04-28 08:08 23.16518 -109.72229 389 ft 8 kts 181°
2026-04-28 08:09 23.16473 -109.72221 388 ft 0 kts 174°
2026-04-28 08:09 23.16455 -109.72220 388 ft 7 kts 174°
2026-04-28 08:09 23.16170 -109.72189 388 ft 83 kts 173°
2026-04-28 08:09 23.15357 -109.72093 391 ft 148 kts 174°
2026-04-28 08:10 23.14263 -109.71966 962 ft 161 kts 173°
2026-04-28 08:10 23.13149 -109.71820 1767 ft 161 kts 172°
2026-04-28 08:10 23.12023 -109.71654 2383 ft 170 kts 169°
2026-04-28 08:10 23.10841 -109.71187 2741 ft 192 kts 149°
2026-04-28 08:11 23.09747 -109.70227 3069 ft 215 kts 130°
2026-04-28 08:11 23.08957 -109.68776 3444 ft 233 kts 108°
2026-04-28 08:11 23.08724 -109.67002 4194 ft 239 kts 85°
2026-04-28 08:11 23.08962 -109.65293 5490 ft 223 kts 81°
2026-04-28 08:12 23.09197 -109.63632 6464 ft 223 kts 82°
2026-04-28 08:12 23.09423 -109.61959 7278 ft 226 kts 83°
2026-04-28 08:12 23.09651 -109.60259 8111 ft 229 kts 83°
2026-04-28 08:12 23.09882 -109.58533 8939 ft 233 kts 83°
2026-04-28 08:13 23.10119 -109.56779 9794 ft 238 kts 83°
2026-04-28 08:13 23.10349 -109.54912 10228 ft 261 kts 86°
2026-04-28 08:13 23.10496 -109.52852 10615 ft 286 kts 84°
2026-04-28 08:13 23.10813 -109.50625 10961 ft 311 kts 81°
2026-04-28 08:14 23.11234 -109.48223 11266 ft 335 kts 80°
2026-04-28 08:14 23.11715 -109.45686 11756 ft 348 kts 79°
2026-04-28 08:14 23.12218 -109.43086 12457 ft 355 kts 79°
2026-04-28 08:14 23.12726 -109.40440 13183 ft 361 kts 79°
2026-04-28 08:15 23.13237 -109.37750 13883 ft 366 kts 80°
2026-04-28 08:15 23.13748 -109.35021 14507 ft 371 kts 80°
2026-04-28 08:15 23.14257 -109.32253 15147 ft 376 kts 80°
2026-04-28 08:15 23.14778 -109.29450 15787 ft 381 kts 78°
2026-04-28 08:16 23.15624 -109.26701 16426 ft 387 kts 66°
2026-04-28 08:16 23.16962 -109.24144 17069 ft 393 kts 55°
2026-04-28 08:16 23.18546 -109.21705 17714 ft 398 kts 55°
2026-04-28 08:16 23.20148 -109.19230 18330 ft 402 kts 55°
2026-04-28 08:17 23.21766 -109.16725 18903 ft 407 kts 55°
2026-04-28 08:17 23.23399 -109.14192 19469 ft 411 kts 55°
2026-04-28 08:17 23.25044 -109.11633 20039 ft 416 kts 55°
2026-04-28 08:17 23.26704 -109.09041 20605 ft 420 kts 55°
2026-04-28 08:18 23.28380 -109.06417 21164 ft 424 kts 55°
2026-04-28 08:18 23.30071 -109.03771 21718 ft 428 kts 55°
2026-04-28 08:18 23.31780 -109.01101 22259 ft 432 kts 55°
2026-04-28 08:18 23.33510 -108.98405 22810 ft 437 kts 55°
2026-04-28 08:19 23.35256 -108.95687 23348 ft 441 kts 55°
2026-04-28 08:19 23.37022 -108.92935 23813 ft 445 kts 55°
2026-04-28 08:19 23.38793 -108.90166 24273 ft 448 kts 55°
2026-04-28 08:19 23.40545 -108.87334 24728 ft 452 kts 59°
2026-04-28 08:20 23.41896 -108.84246 24890 ft 455 kts 71°
2026-04-28 08:20 23.42920 -108.80926 24940 ft 470 kts 72°
2026-04-28 08:20 23.43958 -108.77499 24942 ft 484 kts 72°
2026-04-28 08:20 23.45008 -108.74018 24939 ft 497 kts 72°
2026-04-28 08:21 23.46102 -108.70407 24944 ft 508 kts 72°
2026-04-28 08:21 23.47228 -108.66713 24942 ft 519 kts 72°
2026-04-28 08:21 23.48375 -108.62959 24941 ft 526 kts 72°
2026-04-28 08:21 23.49532 -108.59167 24934 ft 528 kts 72°
2026-04-28 08:22 23.50692 -108.55367 24940 ft 529 kts 72°
2026-04-28 08:22 23.51853 -108.51564 24932 ft 529 kts 72°
2026-04-28 08:22 23.53015 -108.47756 24940 ft 529 kts 72°
2026-04-28 08:22 23.54174 -108.43950 24936 ft 529 kts 72°
2026-04-28 08:23 23.55330 -108.40141 24938 ft 529 kts 72°
2026-04-28 08:23 23.56483 -108.36338 24939 ft 529 kts 72°
2026-04-28 08:23 23.57628 -108.32554 24930 ft 515 kts 72°
2026-04-28 08:23 23.58717 -108.28947 24942 ft 489 kts 72°
2026-04-28 08:24 23.59835 -108.25541 24939 ft 466 kts 66°
2026-04-28 08:24 23.61340 -108.22488 24807 ft 450 kts 56°
2026-04-28 08:24 23.63236 -108.19843 24574 ft 438 kts 45°
2026-04-28 08:24 23.65530 -108.17719 24312 ft 428 kts 32°
2026-04-28 08:25 23.68070 -108.16068 23858 ft 424 kts 27°
2026-04-28 08:25 23.70632 -108.14478 23340 ft 423 kts 27°
2026-04-28 08:25 23.73186 -108.12901 22800 ft 420 kts 27°
2026-04-28 08:26 23.78226 -108.09777 21786 ft 414 kts 28°
2026-04-28 08:26 23.80718 -108.08223 21269 ft 411 kts 28°
2026-04-28 08:26 23.83187 -108.06678 20737 ft 408 kts 28°
2026-04-28 08:26 23.85642 -108.05138 20210 ft 406 kts 28°
2026-04-28 08:27 23.88079 -108.03608 19671 ft 403 kts 28°
2026-04-28 08:27 23.90505 -108.02082 19129 ft 401 kts 28°
2026-04-28 08:27 23.92924 -108.00562 18581 ft 400 kts 28°
2026-04-28 08:27 23.95332 -107.99053 18009 ft 398 kts 28°
2026-04-28 08:28 23.97723 -107.97553 17431 ft 395 kts 28°
2026-04-28 08:28 24.00096 -107.96064 16887 ft 391 kts 28°
2026-04-28 08:28 24.02443 -107.94589 16348 ft 388 kts 28°
2026-04-28 08:28 24.04774 -107.93123 15806 ft 385 kts 28°
2026-04-28 08:29 24.07088 -107.91666 15265 ft 382 kts 29°
2026-04-28 08:29 24.09382 -107.90219 14719 ft 379 kts 29°
2026-04-28 08:29 24.11657 -107.88784 14185 ft 376 kts 29°
2026-04-28 08:29 24.13919 -107.87357 13638 ft 374 kts 29°
2026-04-28 08:30 24.16164 -107.85944 13065 ft 371 kts 29°
2026-04-28 08:30 24.18389 -107.84547 12531 ft 367 kts 29°
2026-04-28 08:30 24.20588 -107.83163 12008 ft 363 kts 29°
2026-04-28 08:30 24.22766 -107.81787 11485 ft 359 kts 29°
2026-04-28 08:31 24.24921 -107.80425 10997 ft 356 kts 29°
2026-04-28 08:31 24.27021 -107.79096 10544 ft 352 kts 29°
2026-04-28 08:31 24.29127 -107.77763 10183 ft 345 kts 29°
2026-04-28 08:31 24.31161 -107.76475 10065 ft 331 kts 29°
2026-04-28 08:32 24.33145 -107.75222 9949 ft 319 kts 29°
2026-04-28 08:32 24.35035 -107.74026 9779 ft 310 kts 29°
2026-04-28 08:32 24.36893 -107.72851 9427 ft 307 kts 29°
2026-04-28 08:32 24.38717 -107.71699 9219 ft 293 kts 29°
2026-04-28 08:33 24.40340 -107.70674 9104 ft 273 kts 28°
2026-04-28 08:33 24.41952 -107.69742 8778 ft 261 kts 26°
2026-04-28 08:33 24.43567 -107.68882 8497 ft 249 kts 25°
2026-04-28 08:33 24.45070 -107.68106 8450 ft 232 kts 24°
2026-04-28 08:34 24.46520 -107.67361 7877 ft 230 kts 24°
2026-04-28 08:34 24.47971 -107.66611 7187 ft 230 kts 24°
2026-04-28 08:34 24.49407 -107.65863 6585 ft 227 kts 25°
2026-04-28 08:34 24.50814 -107.65126 5964 ft 223 kts 25°
2026-04-28 08:35 24.52179 -107.64406 5633 ft 214 kts 25°
2026-04-28 08:35 24.53510 -107.63701 5360 ft 211 kts 25°
2026-04-28 08:35 24.54816 -107.62988 5079 ft 209 kts 30°
2026-04-28 08:35 24.56033 -107.62118 4796 ft 208 kts 32°
2026-04-28 08:36 24.57242 -107.61255 4506 ft 206 kts 32°
2026-04-28 08:36 24.58444 -107.60400 4205 ft 205 kts 32°
2026-04-28 08:36 24.59639 -107.59551 3933 ft 204 kts 32°
2026-04-28 08:36 24.60815 -107.58714 3656 ft 197 kts 31°
2026-04-28 08:37 24.61907 -107.57933 3412 ft 175 kts 31°
2026-04-28 08:37 24.62840 -107.57264 3184 ft 148 kts 31°
2026-04-28 08:37 24.63663 -107.56675 2989 ft 137 kts 30°
2026-04-28 08:37 24.64452 -107.56113 2794 ft 134 kts 30°
2026-04-28 08:38 24.65228 -107.55560 2613 ft 132 kts 30°
2026-04-28 08:38 24.65998 -107.55011 2434 ft 131 kts 30°
2026-04-28 08:38 24.66764 -107.54465 2251 ft 131 kts 30°
2026-04-28 08:38 24.67527 -107.53921 2068 ft 131 kts 31°
2026-04-28 08:39 24.68289 -107.53381 1891 ft 130 kts 31°
2026-04-28 08:39 24.69051 -107.52842 1707 ft 130 kts 31°
2026-04-28 08:39 24.69812 -107.52299 1526 ft 130 kts 31°
2026-04-28 08:39 24.70572 -107.51757 1343 ft 130 kts 31°
2026-04-28 08:40 24.71330 -107.51216 1162 ft 130 kts 32°
2026-04-28 08:40 24.71833 -107.50857 1047 ft 130 kts 32°
2026-04-28 08:40 24.72592 -107.50315 842 ft 130 kts 32°
2026-04-28 08:40 24.73348 -107.49776 655 ft 129 kts 34°
2026-04-28 08:41 24.74094 -107.49223 479 ft 129 kts 33°
2026-04-28 08:41 24.74847 -107.48689 328 ft 128 kts 33°
2026-04-28 08:41 24.75600 -107.48157 156 ft 129 kts 33°
2026-04-28 08:41 24.76292 -107.47663 110 ft 100 kts 33°
2026-04-28 08:42 24.76711 -107.47363 108 ft 33 kts 32°
2026-04-28 08:42 24.76860 -107.47254 109 ft 12 kts 52°
2026-04-28 08:42 24.76816 -107.47177 110 ft 12 kts 149°
2026-04-28 08:42 24.76787 -107.47158 110 ft 6 kts 149°
2026-04-28 08:43 24.76750 -107.47125 110 ft 6 kts 108°
2026-04-28 08:43 24.76772 -107.47092 109 ft 7 kts 31°
2026-04-28 08:43 24.76801 -107.47042 110 ft 10 kts 101°
2026-04-28 08:43 24.76779 -107.47005 109 ft 2 kts 124°